This is the latest recevied weather packets stored in our database for station/object IZ1OSY-3. If no packets are shown the sender has not sent any weather packets the latest 10 day(s).
| Time | Temp. | Humidity | Pressure | Rain* | Wind** | Luminosity | Snow |
|---|---|---|---|---|---|---|---|
| 1777889925 | 11.11° C | 81% | 1018.4 hPa | - | - | - | - |
| 1777889629 | 11.11° C | 78% | 1018.4 hPa | - | - | - | - |
| 1777888725 | 11.11° C | 78% | 1018.4 hPa | - | - | - | - |
| 1777887227 | 11.11° C | 82% | 1018.3 hPa | - | - | - | - |
| 1777886027 | 10.56° C | 87% | 1018.2 hPa | - | - | - | - |
| 1777885122 | 10.56° C | 97% | 1018.3 hPa | - | - | - | - |
| 1777884826 | 10.56° C | 99% | 1018.2 hPa | - | - | - | - |
| 1777882720 | 10.56° C | 99% | 1018.3 hPa | - | - | - | - |
| 1777882424 | 10.56° C | 99% | 1018.2 hPa | - | - | - | - |
| 1777881223 | 10.56° C | 99% | 1018 hPa | - | - | - | - |
| 1777880319 | 10.56° C | 99% | 1018 hPa | - | - | - | - |
| 1777880022 | 10.56° C | 99% | 1018.1 hPa | - | - | - | - |
| 1777879118 | 10° C | 99% | 1017.8 hPa | - | - | - | - |
| 1777878822 | 10° C | 99% | 1018 hPa | - | - | - | - |
| 1777877917 | 10° C | 87% | 1017.6 hPa | - | - | - | - |
| 1777877621 | 10° C | 88% | 1017.4 hPa | - | - | - | - |
| 1777876716 | 10° C | 86% | 1017.2 hPa | - | - | - | - |
| 1777876420 | 10° C | 75% | 1017.2 hPa | - | - | - | - |
| 1777875515 | 10° C | 65% | 1017.1 hPa | - | - | - | - |
| 1777875219 | 10° C | 63% | 1017.1 hPa | - | - | - | - |
| 1777874314 | 10° C | 60% | 1017.1 hPa | - | - | - | - |
| 1777873114 | 10° C | 65% | 1017.3 hPa | - | - | - | - |
| 1777872817 | 10° C | 71% | 1017.3 hPa | - | - | - | - |
| 1777871913 | 10° C | 73% | 1017.6 hPa | - | - | - | - |
| 1777871616 | 10° C | 73% | 1017.7 hPa | - | - | - | - |
* Rain since midnight (hover to see other rain measurements)
** Current wind speed in m/s (hover to see current wind gust speed)